Location: Unspecified
(0.0000°N, 0.0000°E)
Time: 19:04:07
(UTC+00:00)

STARS - Visible Passes

Search period start: 09 December 2019 00:00
Search period end: 19 December 2019 00:00
Orbit: 625 x 639 km, 98.3° (Epoch: 09 December)

Date Brightness Start Highest point End Pass type
(mag) Time Alt. Az. Time Alt. Az. Time Alt. Az.
09 Dec ? 19:06:03 13° ESE 19:06:03 13° ESE 19:07:11 10° SE visible
09 Dec ? 20:43:29 14° WSW 20:43:29 14° WSW 20:44:22 10° SW visible
10 Dec ? 19:27:17 22° SE 19:27:17 22° SE 19:29:29 10° SSE visible
11 Dec ? 19:48:31 32° SSE 19:48:31 32° SSE 19:51:01 10° S visible
12 Dec ? 20:09:45 31° SSW 20:09:45 31° SSW 20:12:04 10° SSW visible
13 Dec ? 20:30:58 21° SW 20:30:58 21° SW 20:32:40 10° SW visible
14 Dec ? 19:14:47 17° ESE 19:14:47 17° ESE 19:16:38 10° SSE visible
14 Dec ? 20:52:12 12° WSW 20:52:12 12° WSW 20:52:41 10° WSW visible
15 Dec ? 19:36:01 27° SE 19:36:01 27° SE 19:38:33 10° SSE visible
16 Dec ? 19:57:15 35° S 19:57:15 35° S 19:59:53 10° S visible
17 Dec ? 20:18:28 29° SW 20:18:28 29° SW 20:20:46 10° SSW visible
18 Dec ? 19:02:17 12° ESE 19:02:17 12° ESE 19:03:10 10° SE visible
18 Dec ? 20:39:42 18° WSW 20:39:42 18° WSW 20:41:10 10° SW visible
